Location: Antin
(43.3330°N, 0.2804°E)
Time: 22:21:58
(UTC+00:00)

Aureole 2 - Pass Details

Date: 16 October 2021
Orbit: 365 x 885 km, 73.9° (Epoch: 03 December)

Event Time Altitude Azimuth Distance (km) Brightness Sun altitude
Rises 17:53:00 0° 338° (NNW) 2,220 8.2 -7.8°
Reaches altitude 10° 17:54:57 10° 337° (NNW) 1,374 7.1 -8.2°
Maximum altitude 17:57:53 76° 251° (WSW) 398 4.3 -8.7°
Drops below altitude 10° 18:01:01 10° 165° (SSE) 1,460 6.9 -9.3°
Sets 18:03:09 0° 164° (SSE) 2,378 7.9 -9.7°
